User: anonymous   Login
Location: Kalberh�ni
(46.4610°N, 7.2453°E)
Time: 05:07:57
(UTC+00:00)
Language:

Cosmos 1725 Rocket - Orbit

View from above orbital plane
View from above orbital plane
View from above satellite
View from above satellite

Ground track
Ground track

The orbit data is extracted from the following two-line orbital elements,

1 16494U 86005B   21261.53046332  .00000028  00000-0  12958-4 0  9990
2 16494  82.9361 355.6508 0018991 207.7937 163.4480 13.76515401791758
Epoch (UTC): 18 September 2021 12:43:52
Eccentricity: 0.0018991
inclination: 82.9361°
perigee height: 962 km
apogee height: 990 km
right ascension of ascending node: 355.6508°
argument of perigee: 207.7937°
revolutions per day: 13.76515401
mean anomaly at epoch: 163.4480°
orbit number at epoch: 79175

The dashed part of the orbit path shows where the satellite is in the earth's shadow,  

DLR